Location: Ciechanow
(52.8812°N, 20.6195°E)
Time: 11:37:40
(UTC+01:00)

ISS - Pass Details

Date: 27 January 2019
Orbit: 403 x 411 km, 51.6° (Epoch: 22 February)

Event Time Altitude Azimuth Distance (km) Brightness Sun altitude
Rises 16:46:28 0° 207° (SSW) 2,323 0.9 -5.4°
Reaches altitude 10° 16:49:02 10° 187° (S) 1,468 -0.6 -5.8°
Maximum altitude 16:51:14 17° 144° (SE) 1,125 -1.7 -6.1°
Drops below altitude 10° 16:53:28 10° 102° (ESE) 1,478 -1.5 -6.4°
Enters shadow 16:54:21 - 92° (E) 1,745 -1.2 -6.5°
